Regional Weather Roundup
Issued by NWS

Home | Current Version | Previous Version | Graphics & Text | Print | Product List | Glossary On
Versions: 1 2 3 4 5 6 7 8 9 10 11 12 13 14 15 16 17 18 19 20 21 22 23 24 25 26 27 28 29 30 31 32 33 34 35 36 37 38 39 40 41 42 43 44 45 46 47 48 49 50
000
ASUS45 KBOI 020610
RWRID
WEATHER ROUNDUP FOR IDAHO
NATIONAL WEATHER SERVICE BOISE ID
1200 AM MDT TUE SEP 02 2014

NOTE: "FAIR" INDICATES FEW OR NO CLOUDS BELOW 12000 FEET
WITH NO SIGNIFICANT WEATHER AND/OR OBSTRUCTIONS TO VISIBILITY

IDZ012-014-020700-
SOUTHWEST IDAHO


CITY           SKY/WX    TMP DP  RH WIND       PRES   REMARKS
BOISE          CLEAR     63  33  32 SE8       29.98S
CALDWELL       CLEAR     54  36  50 NE7       29.98F
MOUNTAIN HOME  CLEAR     57  38  48 E1        29.99F
$$

IDZ016-017-020700-
SOUTHCENTRAL IDAHO


CITY           SKY/WX    TMP DP  RH WIND       PRES   REMARKS
BURLEY         CLEAR     54  43  66 S5        30.05S
JEROME         CLEAR     57  39  51 SE6       30.04F
TWIN FALLS     CLEAR     57  40  52 S12       30.05F
$$

IDZ019>023-020700-
SOUTHEAST IDAHO


CITY           SKY/WX    TMP DP  RH WIND       PRES   REMARKS
IDAHO FALLS    CLEAR     53  40  61 SW8       30.07S
POCATELLO      CLEAR     54  37  52 S3        30.07S
REXBURG        CLEAR     60  37  42 S9        30.06F
$$

IDZ006-010-011-018-031-032-020700-
CENTRAL IDAHO MOUNTAINS


CITY           SKY/WX    TMP DP  RH WIND       PRES   REMARKS
MCCALL         CLEAR     49  36  61 CALM      30.08R
HAILEY         CLEAR     50  37  62 NW7       30.10S
STANLEY          N/A     39  30  70 S5        30.15F
SALMON         CLEAR     48  43  81 CALM      30.01R
CHALLIS        CLEAR     59  32  36 CALM      30.04S
$$

IDZ002-004-006-007-026-020700-
NORTHERN IDAHO


CITY           SKY/WX    TMP DP  RH WIND       PRES   REMARKS
LEWISTON       CLEAR     65  42  43 CALM      29.93F
LOWELL           N/A     55  49  80 N3        30.01S
COEUR D`ALENE  CLEAR     57  43  58 CALM      29.93F
MULLAN PASS    CLEAR     46  35  65 SW7       30.06F
$$



USA.gov is the U.S. government's official web portal to all federal, state and local government web resources and services.